Miscellaneous Local Product
Issued by NWS North Platte, NE

Home | Current Version | Previous Version | Graphics & Text | Print | Product List | Glossary On
Versions: 1 2 3 4 5 6 7 8 9 10 11 12 13 14 15 16 17 18 19 20 21 22 23 24 25 26 27 28 29 30 31 32 33 34 35 36 37 38 39 40 41 42 43 44 45 46 47 48 49 50
000
AXUS43 KLBF 190210
MISLBF


WESTERN AND NORTH CENTRAL NEBRASKA HOURLY WEATHER ROUNDUP
NATIONAL WEATHER SERVICE NORTH PLATTE NE
900 PM CDT SAT APR 18 2015

***STATIONS NOT REPORTING VARIABLES SUCH AS SKY/WEATHER OR
PRESSURE ARE PROVIDED BY THE NEBRASKA DEPARTMENT OF
ROADS...RAWS...AND APRS NETWORKS...AND ARE NOT UNDER
NATIONAL WEATHER SERVICE QUALITY CONTROL***

...OBSERVATIONS IN AND NEAR THE EASTERN PANHANDLE OF NEBRASKA...

CITY           SKY/WX    TMP DP  RH WIND       PRES   REMARKS
PINE RIDGE     CLOUDY    48  43  82 NW7       29.91S
CHADRON        CLOUDY    49  44  83 NW6       29.93S
ALLIANCE       CLOUDY    49  43  80 N17       29.89R
SIDNEY         CLOUDY    45  40  82 N7        29.88S
WHITECLAY        N/A     46  42  86 NW9         N/A
CRESCENT LAKE    N/A     45  38  78 NW6G26      N/A
BIG SPRINGS      N/A     50  46  87 NW6         N/A
$$

...OBSERVATIONS IN NORTH CENTRAL NEBRASKA...

CITY           SKY/WX    TMP DP  RH WIND       PRES   REMARKS
VALENTINE      CLOUDY    55  50  83 N9        29.85R
THEDFORD       CLOUDY    60  52  76 E12       29.82R
AINSWORTH      CLOUDY    57  53  86 NE7       29.82R
O`NEILL        CLOUDY    57  56  94 NE5       29.81S
ORD            CLOUDY    62  53  72 SE6       29.77R
BROKEN BOW     CLOUDY    60  52  74 NE6       29.77S
BROWNLEE         N/A     60  50  69 NE21        N/A
SPRINGVIEW       N/A     56  51  85 CALM        N/A
BREWSTER         N/A     61  56  83 N7          N/A
ROSE             N/A     57  57  99 N8          N/A
NEWPORT          N/A     54  54  97 N6          N/A
SARGENT          N/A     61  53  74 CALM        N/A
COMSTOCK         N/A     67  55  63 E16         N/A
EWING            N/A     58  55  90 CALM        N/A
$$

...OBSERVATIONS IN SOUTHWEST NEBRASKA AND FAR NORTHEAST COLORADO...

CITY           SKY/WX    TMP DP  RH WIND       PRES   REMARKS
WRAY           FAIR      49  42  76 NW14      29.83R
HOLYOKE        FAIR      48  41  76 NW15      29.84R
IMPERIAL       CLOUDY    51  43  74 NW14      29.81R
OGALLALA       CLOUDY    49  45  85 NW13      29.84R
NORTH PLATTE   LGT RAIN  52  46  80 W16       29.82R
MCCOOK         CLOUDY    55  45  68 SE7G24    29.77S
LEXINGTON      TSTM      54  50  86 S16       29.82R
PAXTON           N/A     52  46  80 W7          N/A
SUTHERLAND       N/A     47  44  88 W8          N/A
BRADY            N/A     58  45  61 CALM        N/A
GOTHENBURG       N/A     64  48  57 E5          N/A
CALLAWAY         N/A     61  54  77 E9          N/A
$$

...NORTH PLATTE AREA...

CITY           SKY/WX    TMP DP  RH WIND       PRES   REMARKS
AIRPORT        LGT RAIN  52  46  80 W16       29.82R
$$

...SOME WEATHER OBSERVATIONS FROM AROUND THE REGION...

CITY           SKY/WX    TMP DP  RH WIND       PRES   REMARKS
DENVER         MOCLDY    45  34  65 NW13      29.91R
LARAMIE        CLOUDY    32  30  92 NW12      29.99R WCI  23
CHEYENNE       PTCLDY    38  31  76 NW18G26   29.94R WCI  28
SCOTTSBLUFF    CLOUDY    49  32  52 W9        29.92R
RAPID CITY     LGT RAIN  45  43  93 N12       29.95R FOG
PIERRE         LGT RAIN  50  49  96 NW9       29.85R FOG
WINNER         CLOUDY    56  52  86 N9        29.83S FOG
SIOUX FALLS    CLOUDY    57  55  93 E3        29.82R
OMAHA          CLOUDY    58  56  93 SE8       29.83S
GRAND ISLAND   TSTM      54  47  77 SW25G36   29.84R
KANSAS CITY    PTCLDY    58  57  97 S6        29.84R
WICHITA        HAIL      55  52  89 N10       29.81S
HAYS           CLOUDY    54  43  66 SE7       29.79R
LIBERAL        PTCLDY    52  34  50 W9        29.79R
GOODLAND       MOCLDY    48  44  86 N12       29.81R
$$



USA.gov is the U.S. government's official web portal to all federal, state and local government web resources and services.